Temp
63 60 60 59 59 60 59 59 59 60 60 60 60 60 61 62 63 63 61 62 62 61 61 59 59 60 55 56 57 56 57 59
61 60 59 58 59 59 59 58 57 59 59 59 58 58 59 60 62 63 62 61 61 62 62 59 61 59 59 58 56 57 54 55
58 58 58 58 59 59 59 58 58 60 60 60 60 59 59 60 61 61 63 61 61 63 63 61 62 61 57 57 58 56 58 58
58 57 57 58 57 57 58 57 57 59 61 59 58 58 59 58 59 60 61 63 62 61 64 63 62 62 60 60 59 61 57 55
61 59 56 58 58 59 59 60 58 58 59 59 58 58 57 59 60 60 60 62 63 62 62 62 63 61 60 59 59 61 60 58
61 60 58 58 60 60 61 60 61 59 57 59 58 57 58 58 59 59 59 59 60 61 61 59 59 60 60 59 57 57 57 58
64 63 60 58 61 60 59 58 58 58 57 57 57 58 57 55 57 58 58 58 57 59 59 60 60 59 58 58 58 58 56 57
61 59 57 58 59 59 58 57 57 58 57 56 55 56 57 57 57 58 57 58 58 57 59 59 59 60 59 58 57 57 57 56
62 60 58 57 59 59 59 57 57 59 59 58 56 56 59 59 58 58 58 59 60 61 59 59 60 60 59 59 58 58 57 56
61 60 58 57 59 59 59 58 56 59 59 59 56 56 57 58 56 58 59 60 61 61 59 59 60 60 59 59 58 58 58 58
60 60 58 58 58 60 60 60 56 59 59 60 59 57 57 55 54 54 56 58 59 57 59 59 58 60 60 59 59 60 59 59
60 60 58 57 57 59 59 59 57 59 58 60 59 56 57 59 56 55 55 55 56 56 59 60 60 60 61 60 61 61 59 59
59 58 57 57 55 57 57 57 58 59 57 59 59 56 59 59 59 57 56 56 56 58 57 59 61 61 61 60 60 61 59 59
52 53 53 54 55 56 56 56 57 59 59 59 58 55 56 57 59 60 59 58 57 58 58 58 58 59 59 59 61 61 61 60
48 47 49 51 53 54 54 55 56 57 57 58 58 55 56 56 57 59 60 61 60 60 60 60 60 59 59 60 60 59 60 61
46 45 45 47 49 50 51 52 53 54 57 56 55 56 56 56 56 57 58 58 60 61 61 60 61 61 61 59 59 58 58 57
43 43 44 44 45 46 47 48 49 51 50 50 51 52 55 57 57 57 57 58 59 59 59 59 59 60 52 48 54 60 60 59
40 40 40 41 43 44 43 45 47 46 46 47 47 48 48 49 52 54 56 57 59 59 59 59 59 59 48 46 46 58 60 60
38 38 38 38 41 43 42 42 41 41 41 42 43 44 45 46 47 47 47 48 50 56 58 59 59 59 37 40 43 55 58 59
MSLP
1002.33 1003.54 1004.35 1004.85 1005.82 1005.99 1006.20 1006.67 1007.26 1007.60 1008.01 1008.45 1008.82 1009.01 1009.11 1008.91 1008.51 1009.17 1009.95 1010.12 1010.93 1012.12 1012.89 1013.83 1014.50 1015.53 1016.16 1016.61 1017.42 1018.08 1018.23 1018.89
1002.39 1003.48 1004.15 1004.83 1005.81 1005.91 1006.14 1006.56 1007.16 1007.53 1008.03 1008.47 1008.84 1008.94 1009.08 1009.15 1009.02 1009.13 1009.88 1010.59 1011.43 1012.17 1012.96 1013.84 1014.42 1015.36 1015.82 1016.66 1017.30 1017.89 1018.59 1018.86
1002.31 1003.27 1004.04 1004.47 1005.23 1005.63 1006.00 1006.51 1006.94 1007.32 1007.79 1008.29 1008.69 1009.01 1009.35 1009.38 1009.50 1009.74 1010.03 1010.70 1011.54 1012.29 1013.00 1013.69 1014.52 1015.13 1015.91 1016.54 1016.85 1017.55 1018.17 1018.66
1001.86 1002.77 1003.53 1004.38 1004.96 1005.33 1005.65 1006.29 1006.81 1007.29 1007.76 1008.38 1008.88 1009.25 1009.61 1009.70 1009.97 1010.38 1010.73 1011.05 1011.71 1012.32 1012.92 1013.55 1014.46 1015.03 1015.50 1016.02 1016.43 1016.89 1017.59 1018.54
1000.49 1001.82 1003.10 1003.56 1004.25 1004.95 1005.43 1006.19 1006.79 1007.32 1007.74 1008.21 1008.57 1008.95 1009.48 1009.73 1009.98 1010.45 1010.90 1011.10 1011.31 1012.16 1012.82 1013.38 1014.11 1014.82 1015.25 1015.62 1016.05 1016.56 1017.03 1017.99
999.90 1000.62 1001.47 1002.82 1003.93 1004.58 1005.34 1006.13 1006.62 1007.15 1007.66 1007.94 1008.49 1008.96 1009.47 1009.79 1010.14 1010.52 1010.92 1011.28 1011.27 1011.92 1012.58 1013.23 1013.95 1014.63 1015.20 1015.56 1016.08 1016.35 1016.82 1017.60
999.08 1000.11 1001.71 1002.59 1003.78 1004.49 1005.22 1005.93 1006.45 1006.88 1007.42 1007.86 1008.19 1008.86 1009.45 1009.87 1010.08 1010.49 1010.75 1011.19 1011.25 1011.83 1012.41 1013.08 1013.90 1014.36 1015.17 1015.50 1015.91 1016.38 1017.04 1017.30
999.16 1000.09 1001.06 1002.11 1002.99 1003.92 1004.88 1005.58 1006.16 1006.69 1007.21 1007.72 1008.05 1008.41 1009.09 1009.59 1009.92 1010.19 1010.62 1010.96 1011.46 1011.88 1012.47 1013.11 1013.62 1014.19 1014.85 1015.42 1015.81 1016.16 1016.88 1017.23
997.78 999.01 1000.02 1001.12 1002.30 1003.38 1004.36 1005.15 1005.82 1006.42 1006.95 1007.41 1007.89 1008.17 1008.62 1009.33 1009.90 1010.29 1010.59 1010.89 1011.39 1011.98 1012.45 1012.95 1013.33 1013.72 1014.36 1014.98 1015.42 1016.07 1016.56 1017.00
997.24 998.79 999.53 1000.68 1001.77 1002.73 1003.76 1004.82 1005.64 1006.16 1006.69 1007.23 1007.80 1008.18 1008.47 1008.92 1009.64 1010.20 1010.62 1010.94 1011.26 1011.74 1012.28 1012.67 1013.21 1013.73 1014.12 1014.59 1015.09 1015.63 1015.95 1016.52
998.00 999.03 999.34 1000.52 1001.63 1002.78 1003.90 1004.72 1005.33 1006.01 1006.68 1007.13 1007.64 1008.10 1008.38 1008.81 1009.23 1009.77 1010.18 1010.68 1011.13 1011.49 1011.86 1012.37 1012.89 1013.46 1013.87 1014.23 1014.72 1015.08 1015.56 1015.79
999.06 1000.00 1000.72 1001.75 1002.78 1003.64 1004.38 1005.21 1005.82 1006.32 1006.78 1007.14 1007.58 1008.03 1008.26 1008.64 1009.02 1009.47 1009.92 1010.42 1010.81 1011.23 1011.63 1011.89 1012.38 1012.87 1013.20 1013.73 1014.09 1014.48 1015.04 1015.23
1000.20 1000.93 1001.57 1002.40 1003.32 1004.08 1004.87 1005.44 1005.99 1006.51 1007.08 1007.50 1007.83 1008.13 1008.36 1008.70 1009.01 1009.43 1009.88 1010.26 1010.68 1011.00 1011.35 1011.74 1012.06 1012.26 1012.52 1012.91 1013.24 1013.53 1013.87 1014.09
1001.97 1002.46 1003.10 1003.77 1004.24 1004.69 1005.18 1005.56 1005.93 1006.42 1006.83 1007.28 1007.66 1008.01 1008.31 1008.46 1008.69 1009.05 1009.55 1009.98 1010.28 1010.55 1010.86 1011.09 1011.36 1011.64 1011.95 1012.21 1012.38 1012.50 1012.61 1012.76
1003.98 1004.44 1004.97 1005.37 1005.67 1005.99 1006.09 1006.38 1006.26 1006.41 1006.67 1007.10 1007.46 1007.70 1007.92 1008.08 1008.27 1008.48 1008.72 1009.08 1009.47 1009.76 1010.00 1010.27 1010.55 1010.88 1011.09 1011.32 1011.49 1011.65 1011.70 1011.87
1006.13 1006.52 1006.84 1006.90 1006.95 1007.13 1007.24 1007.32 1007.35 1006.93 1006.65 1007.18 1007.38 1007.46 1007.47 1007.81 1008.07 1008.23 1008.42 1008.64 1008.77 1008.90 1009.14 1009.38 1009.63 1009.82 1010.07 1010.51 1010.80 1010.95 1011.12 1011.29
1008.26 1008.42 1008.36 1008.17 1008.22 1008.16 1008.56 1008.85 1008.78 1008.18 1007.90 1008.15 1008.23 1008.04 1007.85 1007.82 1007.73 1007.72 1007.89 1008.10 1008.24 1008.44 1008.56 1008.64 1008.71 1008.79 1008.94 1009.38 1009.77 1009.86 1009.94 1010.06
1009.94 1009.96 1009.76 1009.53 1009.68 1010.46 1010.12 1010.06 1009.85 1009.38 1009.28 1009.28 1009.11 1009.12 1008.93 1008.73 1008.50 1008.14 1007.93 1007.73 1007.56 1007.59 1007.65 1007.89 1008.02 1008.13 1008.24 1008.42 1008.52 1008.84 1008.81 1008.82
1011.56 1011.40 1011.21 1011.16 1011.10 1011.04 1010.94 1010.94 1010.66 1010.46 1010.39 1010.54 1010.60 1010.34 1009.87 1009.59 1009.33 1009.12 1008.98 1008.69 1008.28 1007.75 1007.40 1007.13 1007.31 1007.44 1008.64 1008.26 1007.78 1007.67 1007.60 1007.55
Wind_Speed
14 15 12 12 10 10 10 8 9 7 5 4 2 2 2 2 5 10 10 9 12 10 8 8 9 8 5 5 6 3 5 8
10 13 13 12 10 11 12 11 9 7 4 3 3 2 1 2 3 11 11 10 9 8 8 8 9 9 9 7 4 6 3 4
14 14 14 15 16 13 12 10 11 7 5 3 2 3 1 2 4 5 8 12 10 8 10 10 10 9 8 7 6 3 3 6
15 17 16 15 15 14 13 10 11 11 9 4 3 4 3 2 3 4 5 11 12 11 10 11 9 9 9 9 7 7 5 3
15 17 17 19 16 12 12 11 10 9 11 8 7 4 4 4 4 4 5 8 12 13 9 9 10 6 9 8 5 6 5 8
18 20 20 16 17 16 13 14 14 11 10 12 9 7 3 2 3 6 6 4 11 11 11 7 6 5 5 8 6 5 3 6
17 12 14 15 16 15 15 16 15 12 9 9 12 11 8 4 6 6 6 5 4 8 8 9 6 6 6 5 5 6 4 2
13 17 18 19 19 17 14 16 15 14 10 8 9 10 10 7 6 5 7 5 4 7 9 10 9 9 10 6 4 4 4 3
20 21 19 19 20 19 18 17 15 15 13 13 7 9 8 7 7 5 5 6 7 10 9 9 11 11 9 9 6 6 6 4
18 16 17 18 19 20 18 17 12 14 14 10 8 8 8 8 8 5 5 5 6 8 8 8 10 11 9 9 7 11 9 10
9 12 15 14 14 15 15 15 12 14 13 12 10 8 6 6 7 8 8 6 7 7 8 8 8 10 12 12 10 11 13 12
8 7 9 9 8 9 10 11 10 11 11 11 9 6 7 8 7 7 7 5 6 6 8 9 11 11 11 11 12 12 14 14
14 13 13 12 10 9 8 7 8 9 7 8 10 5 7 8 8 8 7 8 6 8 7 9 11 11 13 14 14 13 14 15
18 18 16 13 9 7 7 7 8 8 7 7 8 6 7 8 8 8 9 9 9 10 11 11 11 12 12 12 14 15 15 15
17 17 16 14 12 11 10 10 3 4 8 10 9 7 8 7 7 9 11 11 12 13 13 13 14 13 13 14 15 15 16 15
16 14 13 13 13 13 12 11 10 9 3 4 4 5 6 6 6 8 9 10 11 13 13 13 14 14 12 15 15 15 15 15
15 14 15 15 14 15 12 12 10 9 11 10 9 9 8 5 8 9 9 11 12 12 13 14 15 12 15 18 17 15 17 17
14 13 13 13 14 11 12 12 10 11 11 11 12 10 9 9 9 8 6 10 12 14 15 15 16 16 14 17 21 17 16 17
12 11 12 11 10 10 10 11 12 12 12 12 11 10 10 10 10 10 10 9 9 9 13 14 15 9 16 9 16 18 18 20
Wind_Direction
186 168 166 157 173 167 153 151 152 144 133 122 120 127 147 173 176 171 146 134 138 148 139 145 147 158 139 137 150 123 142 142
153 159 159 152 174 165 162 154 157 144 143 143 168 146 110 90 82 124 129 130 138 146 146 150 155 163 160 160 133 144 96 132
154 161 167 171 175 173 164 162 162 155 153 127 109 110 105 65 87 102 137 153 152 166 161 161 171 161 156 164 145 133 116 169
163 170 176 170 178 177 170 162 162 169 167 124 96 85 86 82 102 127 159 161 163 173 171 165 170 171 174 171 159 165 152 191
177 167 177 182 179 171 166 168 166 165 163 158 162 183 168 197 171 147 149 178 159 166 171 159 167 170 179 178 159 166 155 183
182 185 183 172 170 172 170 178 183 179 171 168 167 180 157 136 147 155 157 168 152 148 167 134 143 146 180 171 157 143 155 175
198 172 156 161 169 172 172 176 183 181 174 167 167 170 176 170 180 184 167 154 138 140 146 167 166 139 163 160 148 147 171 149
177 165 164 168 173 172 174 178 182 185 178 176 170 168 171 182 183 182 171 172 165 164 165 171 183 179 169 179 174 152 184 179
181 178 169 166 172 175 177 179 178 185 187 190 181 168 173 178 186 192 185 184 184 178 181 181 179 175 169 173 180 206 189 190
177 171 165 163 171 177 178 179 176 185 194 193 187 185 179 167 166 171 198 190 195 182 169 172 181 186 179 179 194 204 200 218
164 175 161 163 160 166 172 179 179 185 194 199 198 185 179 163 161 178 181 178 185 173 171 175 175 190 198 195 202 210 211 216
100 99 93 103 109 151 167 178 168 182 193 195 198 186 184 186 186 186 182 173 177 175 193 196 194 194 202 208 214 206 209 215
80 86 98 103 105 116 142 143 168 187 180 198 217 197 192 195 199 193 192 192 188 200 189 205 215 213 208 207 213 212 213 219
65 63 62 61 73 115 140 151 168 182 179 193 202 195 200 205 201 196 194 203 209 212 212 212 212 216 217 219 224 225 224 223
61 57 54 53 55 58 59 46 33 194 188 206 212 201 209 210 210 211 209 202 210 218 220 224 226 225 222 222 222 226 230 231
53 55 53 47 46 41 42 39 30 32 163 175 227 220 203 202 207 216 221 221 223 223 220 221 225 228 224 226 228 231 234 238
51 51 54 50 43 37 37 35 25 42 51 50 33 24 14 249 231 223 222 226 224 228 228 229 227 227 220 214 225 232 234 234
46 47 47 43 43 36 38 32 32 42 44 36 31 22 21 13 357 0 300 250 231 232 232 234 238 240 227 215 212 229 236 240
50 44 43 36 34 34 35 29 34 36 38 35 25 18 20 13 10 7 352 340 333 285 245 237 238 237 11 316 239 225 232 239